This is the latest recevied weather packets stored in our database for station/object K1FFK-1. If no packets are shown the sender has not sent any weather packets the latest 10 day(s).
| Time | Temp. | Humidity | Pressure | Rain* | Wind** | Luminosity | Snow |
|---|---|---|---|---|---|---|---|
| 1777945894 | 10° C | 64% | 1013.5 hPa | 0 mm | - | - | - |
| 1777945294 | 10° C | 64% | 1013.5 hPa | 0 mm | - | - | - |
| 1777944693 | 10° C | 63% | 1013.3 hPa | 0 mm | - | - | - |
| 1777944094 | 10° C | 63% | 1013.4 hPa | 0 mm | - | - | - |
| 1777943494 | 10° C | 62% | 1013.4 hPa | 0 mm | - | - | - |
| 1777942894 | 10° C | 61% | 1013.4 hPa | 0 mm | - | - | - |
| 1777942294 | 10° C | 62% | 1013.3 hPa | 0 mm | - | - | - |
| 1777941694 | 10° C | 63% | 1013.3 hPa | 0 mm | - | - | - |
| 1777941094 | 10° C | 61% | 1013.2 hPa | 0 mm | - | - | - |
| 1777940494 | 10° C | 60% | 1013.1 hPa | 0 mm | - | - | - |
| 1777939894 | 10° C | 59% | 1013 hPa | 0 mm | - | - | - |
| 1777939294 | 10° C | 60% | 1012.9 hPa | 0 mm | - | - | - |
| 1777938693 | 10.56° C | 59% | 1012.8 hPa | 0 mm | - | - | - |
| 1777938093 | 10.56° C | 60% | 1012.8 hPa | 0 mm | - | - | - |
| 1777937495 | 10.56° C | 59% | 1012.7 hPa | 0 mm | - | - | - |
| 1777936894 | 11.11° C | 58% | 1012.6 hPa | 0 mm | - | - | - |
| 1777936294 | 11.67° C | 55% | 1012.6 hPa | 0 mm | - | - | - |
| 1777935693 | 11.67° C | 54% | 1012.4 hPa | 0 mm | - | - | - |
| 1777935094 | 12.78° C | 51% | 1012.4 hPa | 0 mm | - | - | - |
| 1777934494 | 12.22° C | 52% | 1012.2 hPa | 0 mm | - | - | - |
| 1777933894 | 12.78° C | 52% | 1012.5 hPa | 0 mm | - | - | - |
| 1777933294 | 12.78° C | 50% | 1012.3 hPa | 0 mm | - | - | - |
| 1777932694 | 12.78° C | 50% | 1012.4 hPa | 0 mm | - | - | - |
| 1777932094 | 13.33° C | 50% | 1012.5 hPa | 0 mm | - | - | - |
| 1777931494 | 13.33° C | 48% | 1012.5 hPa | 0 mm | - | - | - |
* Rain latest hour (hover to see other rain measurements)
** Current wind speed in m/s (hover to see current wind gust speed)